Meteo Giornale » Osservazioni meteo Stati Uniti (USA) » Burlington
ore: 03:53 - Osservazioni Meteo Burlington
Lat. 40° 46' N Lon. 91° 7' W Alt. 212 metri s.l.m.
22 °C
Sereno
Temp. 24 Ore
22 °C
33 °C
Nord
5.5 Km/h
Dew point 22 °C
Umidità 100 %
Visibilità 14 Km
Il sole sorge alle ore 06:31
Il sole tramonta alle ore 19:37
| Data e Ora | Cielo e Fenomeni | T °C | DP °C | Um. % | Pres. hPa | Vis. km | Vento km/h | |
|---|---|---|---|---|---|---|---|---|
| Oggi h: 03:53 | Sereno | 22 | 22 | 100 | 1014 | 14 | N 5.5 | |
| Oggi h: 02:53 | Sereno | 23 | 22 | 94 | 1014 | 10 | N 0 | |
| Oggi h: 01:53 | Sereno | 24 | 22 | 88 | 1014 | 10 | SO 7.4 | |
| Oggi h: 00:53 | Sereno | 25 | 22 | 83 | 1014 | 10 | SO 7.4 | |
| Ieri h: 23:53 | Sereno | 26 | 23 | 83 | 1014 | 10 | N 5.5 | |
| Ieri h: 22:53 | Sereno | 26 | 23 | 83 | 1014 | 10 | SO 9.3 | |
| Ieri h: 21:53 | Sereno | 27 | 24 | 83 | 1014 | 10 | O/SO 7.4 | |
| Ieri h: 20:53 | Sereno | 27 | 24 | 83 | 1013 | 10 | S/SO 9.3 | |
| Ieri h: 19:53 | Sereno | 28 | 24 | 78 | 1013 | 11 | S 7.4 | |
| Ieri h: 19:30 | Foschia | 29 | 24 | 74 | 1013 | 6 | S/SO 7.4 | |
| Ieri h: 19:21 | Foschia | 29 | 24 | 74 | 1012 | 3 | N 5.5 | |
| Ieri h: 18:53 | Sereno | 31 | 26 | 74 | 1013 | 13 | S/SO 7.4 | |
| Ieri h: 17:53 | Sereno | 33 | 23 | 55 | 1012 | 10 | N 5.5 | |
| Ieri h: 16:53 | Sereno | 33 | 23 | 55 | 1012 | 10 | O/SO 11.1 | |
| Ieri h: 15:53 | Sereno | 33 | 23 | 55 | 1013 | 10 | O/SO 13 | |
| Ieri h: 14:53 | Sereno | 33 | 22 | 52 | 1013 | 10 | SO 13 | |
| Ieri h: 13:53 | Sereno | 33 | 22 | 52 | 1013 | 10 | O/SO 13 | |
| Ieri h: 12:53 | Sereno | 33 | 22 | 52 | 1014 | 10 | SO 16.7 | |
| Ieri h: 11:53 | Sereno | 31 | 21 | 55 | 1014 | 14 | O/SO 16.7 | |
| Ieri h: 10:53 | Sereno | 29 | 21 | 62 | 1014 | 14 | SO 18.5 | |
| Ieri h: 09:53 | Sereno | 27 | 19 | 61 | 1013 | 14 | SO 20.3 | |
| Ieri h: 08:53 | Molto Nuvoloso | 26 | 19 | 65 | 1014 | 10 | SO 18.5 | |
| Ieri h: 07:53 | Coperto | 24 | 18 | 69 | 1014 | 10 | SO 18.5 | |
| Ieri h: 06:53 | Coperto | 23 | 18 | 73 | 1013 | 10 | S/SO 16.7 | |
| Ieri h: 05:53 | Nuvoloso | 23 | 18 | 73 | 1013 | 10 | SO 16.7 | |
| Ieri h: 04:53 | Sereno | 23 | 18 | 73 | 1013 | 10 | S/SO 16.7 | |



